User: anonymous
Location: Alberta Star Party
(51.6612°N, 112.9089°W)
Time: 16:10:20
(UTC-06:00)
Language:

AO-Echo - Orbit

View from above orbital plane
View from above orbital plane
View from above satellite
View from above satellite

Ground track
Ground track

The orbit data is extracted from the following two-line orbital elements,

1 28375U 04025K   14264.07137043  .00000289  00000-0  98306-4 0  9469
2 28375 098.2594 207.7549 0084100 063.1859 297.7901 14.41429667537726
Epoch (UTC): 21 September 2014 01:42:46
Eccentricity: 0.0084100
inclination: 98.2594°
perigee height: 694 km
apogee height: 814 km
right ascension of ascending node: 207.7549°
argument of perigee: 63.1859°
revolutions per day: 14.41429667
mean anomaly at epoch: 297.7901°
orbit number at epoch: 53772

The dashed part of the orbit path shows where the satellite is in the earth's shadow,  

DLR